Skip Page Navigation
NASA JPL Caltech
NASA Logo - Jet Propulsion Laboratory + View the NASA Portal
+ Near-Earth Object (NEO) Program
Search JPL
JPL Home Earth Solar System Stars & Galaxies Technology
JPL Solar System Dynamics
BODIES ORBITS EPHEMERIDES TOOLS PHYSICAL DATA DISCOVERY FAQ SITE MAP
JPL Small-Body Database Browser
Search: [ help ]  
221996 (1997 YN1)
Classification: Main-belt Asteroid          SPK-ID: 2221996
Ephemeris | Orbit Diagram | Orbital Elements | Physical Parameters | Discovery Circumstances | Close-Approach Data ]

[ show orbit diagram ]
Orbital Elements at Epoch 2457400.5 (2016-Jan-13.0) TDB
Reference: JPL 12 (heliocentric ecliptic J2000)
 Element Value Uncertainty (1-sigma)   Units 
e .2538094784780995 6.5313e-08  
a 2.595469445059727 2.6616e-08 au
q 1.936714698803276 1.5677e-07 au
i 13.20107015050977 8.955e-06 deg
node 126.817847236078 3.3526e-05 deg
peri 313.8726625652027 5.2604e-05 deg
M 126.4296479178201 3.9675e-05 deg
tp 2456864.124743231669
(2014-Jul-25.62474323)
0.00016152 JED
period 1527.292811588877
4.18
2.3493e-05
6.432e-08
d
yr
n .2357111860072752 3.6257e-09 deg/d
Q 3.254224191316179 3.3371e-08 au
  Orbit Determination Parameters
   # obs. used (total)      368  
   data-arc span      6321 days (17.31 yr)  
   first obs. used      1997-12-19  
   last obs. used      2015-04-10  
   planetary ephem.      DE431  
   SB-pert. ephem.      SB431-BIG16  
   condition code      0  
   fit RMS      .58162  
   data source      ORB  
   producer      Otto Matic  
   solution date      2015-Jun-04 23:06:57  

Additional Information
 Earth MOID = .976254 au 
 Jupiter MOID = 2.05905 au 
 T_jup = 3.335 
[ show covariance matrix ]

Ephemeris | Orbit Diagram | Orbital Elements | Physical Parameters | Discovery Circumstances | Close-Approach Data ]

Physical Parameter Table
Parameter Symbol Value Units Sigma Reference Notes
absolute magnitude H 15.8 mag n/a MPO325953  

221996 (1997 YN1)          Discovered 1997-Dec-19 by Beijing Schmidt CCD Asteroid Program at Xinglong
Reference: 20091102/Numbers.arcLast Updated: 2009-11-04

[ show close-approach data ]
Ephemeris | Orbit Diagram | Orbital Elements | Physical Parameters | Discovery Circumstances | Close-Approach Data ]
ABOUT SSD CREDITS/AWARDS PRIVACY/COPYRIGHT GLOSSARY LINKS
FirstGov 2016-Feb-14 18:55 UT
(server date/time)  
NASA Home Page
Site Manager:   Ryan S. Park
Webmaster  Alan B. Chamberlin